SWA612 KRNO-KLAS

Flight info

Callsign SWA612
Flight time 0h 53m
Altitude 33000
Route ZEFFR9 PESKE TQILA COKTL4
Aircraft B38M/M-SADE2E3GHIJ4J7P2RWZ/LB1D1

Departure

Time 2026-05-07 20:14
Airport Reno Tahoe International Airport (KRNO)

Arrival

Time 2026-05-07 21:07
Airport Harry Reid International Airport (KLAS)
Time Latitude Longitude Altitude Speed Heading
2026-05-07 19:54 39.50522 -119.77221 4541 ft 0 kts 244°
2026-05-07 20:03 39.50531 -119.77198 4545 ft 4 kts 247°
2026-05-07 20:03 39.50535 -119.77172 4522 ft 3 kts 270°
2026-05-07 20:03 39.50538 -119.77152 4519 ft 4 kts 193°
2026-05-07 20:04 39.50562 -119.77151 4520 ft 3 kts 180°
2026-05-07 20:04 39.50565 -119.77151 4519 ft 0 kts 180°
2026-05-07 20:08 39.50561 -119.77151 4521 ft 4 kts 180°
2026-05-07 20:08 39.50471 -119.77151 4519 ft 20 kts 180°
2026-05-07 20:09 39.50291 -119.77151 4520 ft 32 kts 180°
2026-05-07 20:09 39.50047 -119.77150 4518 ft 34 kts 180°
2026-05-07 20:09 39.49859 -119.77151 4520 ft 23 kts 180°
2026-05-07 20:10 39.49571 -119.77153 4517 ft 21 kts 180°
2026-05-07 20:10 39.49419 -119.77153 4517 ft 22 kts 180°
2026-05-07 20:10 39.49315 -119.77154 4517 ft 23 kts 180°
2026-05-07 20:10 39.49153 -119.77154 4518 ft 23 kts 180°
2026-05-07 20:11 39.48943 -119.77133 4518 ft 19 kts 139°
2026-05-07 20:11 39.48927 -119.77030 4516 ft 8 kts 90°
2026-05-07 20:11 39.48926 -119.76917 4516 ft 19 kts 90°
2026-05-07 20:11 39.48925 -119.76789 4515 ft 2 kts 90°
2026-05-07 20:12 39.48925 -119.76769 4514 ft 4 kts 90°
2026-05-07 20:12 39.48940 -119.76693 4515 ft 14 kts 39°
2026-05-07 20:13 39.49000 -119.76682 4513 ft 14 kts 359°
2026-05-07 20:13 39.49362 -119.76682 4522 ft 89 kts
2026-05-07 20:13 39.50216 -119.76679 4518 ft 153 kts 359°
2026-05-07 20:13 39.51425 -119.76656 4743 ft 188 kts 359°
2026-05-07 20:14 39.52792 -119.76617 5388 ft 201 kts 356°
2026-05-07 20:14 39.54196 -119.76617 6230 ft 199 kts 355°
2026-05-07 20:14 39.55646 -119.76622 6857 ft 219 kts 356°
2026-05-07 20:14 39.57256 -119.76558 7289 ft 247 kts
2026-05-07 20:15 39.58889 -119.75558 7765 ft 275 kts 43°
2026-05-07 20:15 39.59885 -119.73487 8414 ft 278 kts 73°
2026-05-07 20:15 39.60052 -119.71000 8625 ft 279 kts 91°
2026-05-07 20:15 39.60099 -119.68468 8759 ft 282 kts 87°
2026-05-07 20:16 39.60184 -119.65924 8886 ft 282 kts 87°
2026-05-07 20:16 39.60011 -119.63327 8862 ft 294 kts 110°
2026-05-07 20:16 39.58944 -119.61100 8910 ft 295 kts 139°
2026-05-07 20:16 39.57219 -119.59661 9547 ft 296 kts 155°
2026-05-07 20:17 39.55386 -119.58384 10423 ft 304 kts 154°
2026-05-07 20:17 39.53457 -119.57046 10931 ft 324 kts 154°
2026-05-07 20:17 39.51395 -119.55634 11360 ft 344 kts 154°
2026-05-07 20:17 39.49235 -119.54164 11929 ft 357 kts 154°
2026-05-07 20:18 39.47036 -119.52675 12700 ft 363 kts 154°
2026-05-07 20:18 39.44783 -119.51151 13562 ft 367 kts 155°
2026-05-07 20:18 39.42502 -119.49610 14311 ft 373 kts 155°
2026-05-07 20:18 39.40187 -119.48046 15042 ft 378 kts 155°
2026-05-07 20:19 39.37844 -119.46466 15748 ft 383 kts 154°
2026-05-07 20:19 39.35459 -119.44858 16462 ft 388 kts 154°
2026-05-07 20:19 39.33056 -119.43240 17185 ft 392 kts 154°
2026-05-07 20:19 39.30613 -119.41597 17870 ft 397 kts 154°
2026-05-07 20:20 39.28140 -119.39934 18529 ft 402 kts 154°
2026-05-07 20:20 39.25678 -119.38281 19138 ft 406 kts 154°
2026-05-07 20:20 39.23156 -119.36588 19739 ft 411 kts 154°
2026-05-07 20:20 39.20608 -119.34879 20383 ft 413 kts 154°
2026-05-07 20:21 39.18045 -119.33162 20951 ft 418 kts 154°
2026-05-07 20:21 39.15460 -119.31431 21515 ft 421 kts 153°
2026-05-07 20:21 39.12852 -119.29686 22142 ft 423 kts 153°
2026-05-07 20:21 39.10221 -119.27927 22766 ft 426 kts 153°
2026-05-07 20:22 39.07577 -119.26162 23364 ft 429 kts 153°
2026-05-07 20:22 39.04915 -119.24386 23869 ft 433 kts 153°
2026-05-07 20:22 39.02266 -119.22619 24332 ft 436 kts 153°
2026-05-07 20:22 38.99560 -119.20817 24808 ft 439 kts 152°
2026-05-07 20:23 38.96839 -119.19006 25283 ft 442 kts 152°
2026-05-07 20:23 38.94103 -119.17186 25741 ft 445 kts 152°
2026-05-07 20:23 38.91343 -119.15352 26204 ft 448 kts 152°
2026-05-07 20:23 38.88594 -119.13528 26655 ft 451 kts 152°
2026-05-07 20:24 38.85786 -119.11665 27106 ft 454 kts 152°
2026-05-07 20:24 38.82972 -119.09800 27551 ft 457 kts 152°
2026-05-07 20:24 38.80140 -119.07924 27988 ft 460 kts 152°
2026-05-07 20:24 38.77446 -119.05713 28402 ft 461 kts 138°
2026-05-07 20:25 38.75228 -119.02742 28849 ft 462 kts 130°
2026-05-07 20:25 38.73082 -118.99665 29200 ft 466 kts 130°
2026-05-07 20:25 38.70928 -118.96543 29655 ft 468 kts 130°
2026-05-07 20:25 38.68774 -118.93392 30054 ft 472 kts 130°
2026-05-07 20:26 38.66633 -118.90253 30418 ft 475 kts 130°
2026-05-07 20:26 38.64452 -118.87053 30793 ft 477 kts 130°
2026-05-07 20:26 38.62267 -118.83849 31171 ft 479 kts 130°
2026-05-07 20:26 38.60066 -118.80626 31554 ft 481 kts 130°
2026-05-07 20:27 38.57863 -118.77402 32004 ft 481 kts 130°
2026-05-07 20:27 38.55669 -118.74195 32498 ft 480 kts 130°
2026-05-07 20:27 38.53468 -118.70981 32971 ft 480 kts 130°
2026-05-07 20:27 38.51270 -118.67775 33152 ft 480 kts 130°
2026-05-07 20:28 38.49078 -118.64579 33144 ft 476 kts 130°
2026-05-07 20:28 38.44742 -118.58270 33132 ft 476 kts 130°
2026-05-07 20:29 38.40377 -118.51931 33101 ft 476 kts 130°
2026-05-07 20:29 38.36000 -118.45587 33069 ft 476 kts 130°
2026-05-07 20:30 38.31619 -118.39249 33032 ft 475 kts 130°
2026-05-07 20:30 38.27270 -118.32971 33009 ft 477 kts 130°
2026-05-07 20:31 38.22884 -118.26651 33007 ft 477 kts 130°
2026-05-07 20:31 38.18493 -118.20337 32998 ft 476 kts 130°
2026-05-07 20:32 38.14107 -118.14042 32996 ft 476 kts 130°
2026-05-07 20:32 38.09708 -118.07741 32998 ft 476 kts 130°
2026-05-07 20:33 38.05316 -118.01463 32991 ft 478 kts 130°
2026-05-07 20:33 38.00929 -117.95204 32992 ft 476 kts 130°
2026-05-07 20:34 37.96523 -117.88930 32997 ft 476 kts 130°
2026-05-07 20:34 37.92104 -117.82651 32994 ft 476 kts 130°
2026-05-07 20:35 37.87703 -117.76409 32991 ft 476 kts 130°
2026-05-07 20:35 37.83295 -117.70169 32987 ft 475 kts 130°
2026-05-07 20:36 37.78909 -117.63971 32985 ft 475 kts 130°
2026-05-07 20:36 37.74506 -117.57763 32995 ft 475 kts 130°
2026-05-07 20:37 37.70090 -117.51548 32991 ft 474 kts 130°
2026-05-07 20:37 37.65680 -117.45351 33004 ft 475 kts 130°
2026-05-07 20:38 37.61243 -117.39132 33001 ft 476 kts 130°
2026-05-07 20:38 37.56848 -117.32979 32997 ft 476 kts 130°
2026-05-07 20:39 37.52417 -117.26788 33003 ft 475 kts 130°
2026-05-07 20:39 37.47951 -117.20633 32998 ft 476 kts 135°
2026-05-07 20:40 37.42577 -117.15744 32984 ft 478 kts 143°
2026-05-07 20:40 37.37120 -117.10955 32992 ft 480 kts 144°
2026-05-07 20:41 37.31665 -117.06216 32988 ft 479 kts 144°
2026-05-07 20:41 37.26176 -117.01458 32988 ft 479 kts 144°
2026-05-07 20:42 37.20687 -116.96707 32981 ft 479 kts 144°
2026-05-07 20:42 37.15213 -116.91979 32977 ft 478 kts 144°
2026-05-07 20:43 37.09724 -116.87245 32972 ft 479 kts 144°
2026-05-07 20:43 37.04226 -116.82513 32979 ft 479 kts 144°
2026-05-07 20:44 36.98765 -116.77820 32963 ft 478 kts 144°
2026-05-07 20:44 36.93281 -116.73117 32962 ft 478 kts 144°
2026-05-07 20:45 36.87787 -116.68413 32954 ft 478 kts 143°
2026-05-07 20:45 36.82298 -116.63722 32952 ft 478 kts 144°
2026-05-07 20:46 36.76823 -116.59051 32224 ft 476 kts 144°
2026-05-07 20:46 36.74115 -116.56743 31281 ft 480 kts 144°
2026-05-07 20:46 36.71347 -116.54386 30351 ft 483 kts 144°
2026-05-07 20:46 36.68551 -116.52008 29235 ft 488 kts 143°
2026-05-07 20:47 36.65768 -116.49578 28313 ft 486 kts 139°
2026-05-07 20:47 36.63414 -116.46610 27498 ft 480 kts 128°
2026-05-07 20:47 36.61203 -116.43517 26876 ft 474 kts 129°
2026-05-07 20:47 36.59014 -116.40458 26149 ft 471 kts 129°
2026-05-07 20:48 36.56855 -116.37419 25429 ft 469 kts 129°
2026-05-07 20:48 36.54701 -116.34380 24709 ft 468 kts 129°
2026-05-07 20:48 36.52560 -116.31359 24181 ft 462 kts 129°
2026-05-07 20:48 36.50461 -116.28401 23924 ft 449 kts 129°
2026-05-07 20:49 36.48441 -116.25555 23665 ft 438 kts 129°
2026-05-07 20:49 36.46442 -116.22740 23401 ft 428 kts 129°
2026-05-07 20:49 36.44487 -116.19991 22875 ft 424 kts 129°
2026-05-07 20:49 36.42537 -116.17252 22316 ft 421 kts 129°
2026-05-07 20:50 36.40610 -116.14546 21852 ft 417 kts 129°
2026-05-07 20:50 36.38692 -116.11857 21381 ft 414 kts 129°
2026-05-07 20:50 36.36790 -116.09191 20891 ft 410 kts 129°
2026-05-07 20:50 36.34907 -116.06553 20444 ft 406 kts 129°
2026-05-07 20:51 36.33039 -116.03939 19975 ft 404 kts 129°
2026-05-07 20:51 36.31203 -116.01372 19563 ft 400 kts 129°
2026-05-07 20:51 36.29380 -115.98824 19408 ft 390 kts 129°
2026-05-07 20:51 36.27600 -115.96339 19230 ft 380 kts 129°
2026-05-07 20:52 36.25865 -115.93917 19061 ft 371 kts 129°
2026-05-07 20:52 36.24258 -115.91471 18733 ft 366 kts 124°
2026-05-07 20:52 36.22713 -115.88998 18451 ft 361 kts 125°
2026-05-07 20:52 36.21172 -115.86556 18140 ft 358 kts 126°
2026-05-07 20:53 36.19636 -115.84133 17774 ft 356 kts 126°
2026-05-07 20:53 36.18110 -115.81733 17418 ft 353 kts 126°
2026-05-07 20:53 36.16602 -115.79365 17066 ft 349 kts 126°
2026-05-07 20:53 36.15132 -115.77060 16760 ft 339 kts 126°
2026-05-07 20:54 36.13804 -115.74713 16402 ft 327 kts 113°
2026-05-07 20:54 36.12984 -115.72120 16111 ft 323 kts 108°
2026-05-07 20:54 36.12178 -115.69520 15823 ft 323 kts 109°
2026-05-07 20:54 36.11377 -115.66930 15512 ft 322 kts 108°
2026-05-07 20:55 36.10578 -115.64339 15225 ft 321 kts 109°
2026-05-07 20:55 36.09792 -115.61793 14933 ft 320 kts 108°
2026-05-07 20:55 36.08998 -115.59219 14629 ft 320 kts 109°
2026-05-07 20:55 36.08207 -115.56657 14326 ft 317 kts 109°
2026-05-07 20:56 36.07424 -115.54120 14025 ft 315 kts 109°
2026-05-07 20:56 36.06645 -115.51600 13726 ft 312 kts 109°
2026-05-07 20:56 36.05870 -115.49097 13381 ft 311 kts 109°
2026-05-07 20:56 36.05097 -115.46598 13121 ft 311 kts 109°
2026-05-07 20:57 36.04322 -115.44100 12814 ft 310 kts 110°
2026-05-07 20:57 36.03553 -115.41620 12470 ft 308 kts 110°
2026-05-07 20:57 36.02799 -115.39192 12169 ft 305 kts 110°
2026-05-07 20:57 36.02041 -115.36751 11916 ft 307 kts 110°
2026-05-07 20:58 36.01558 -115.34191 11599 ft 307 kts 92°
2026-05-07 20:58 36.01442 -115.31562 11325 ft 306 kts 91°
2026-05-07 20:58 36.01311 -115.28939 11090 ft 305 kts 91°
2026-05-07 20:58 36.01181 -115.26330 10808 ft 303 kts 91°
2026-05-07 20:59 36.01053 -115.23745 10519 ft 301 kts 91°
2026-05-07 20:59 36.00925 -115.21175 10239 ft 298 kts 91°
2026-05-07 20:59 36.00799 -115.18655 9959 ft 295 kts 91°
2026-05-07 20:59 36.00672 -115.16131 9659 ft 293 kts 91°
2026-05-07 21:00 36.00546 -115.13635 9371 ft 290 kts 91°
2026-05-07 21:00 36.00421 -115.11154 9079 ft 288 kts 91°
2026-05-07 21:00 36.00295 -115.08691 8780 ft 286 kts 92°
2026-05-07 21:00 36.00172 -115.06251 8515 ft 284 kts 92°
2026-05-07 21:01 36.00047 -115.03830 8269 ft 281 kts 92°
2026-05-07 21:01 35.99965 -115.02234 8109 ft 280 kts 92°
2026-05-07 21:01 35.99917 -114.99880 8049 ft 267 kts 89°
2026-05-07 21:01 35.99894 -114.96851 7532 ft 270 kts 89°
2026-05-07 21:02 35.99885 -114.94491 6958 ft 281 kts 86°
2026-05-07 21:02 36.00435 -114.92193 6416 ft 283 kts 54°
2026-05-07 21:02 36.01368 -114.91044 6118 ft 280 kts 32°
2026-05-07 21:02 36.03117 -114.90209 5797 ft 263 kts
2026-05-07 21:03 36.04878 -114.90451 5456 ft 251 kts 340°
2026-05-07 21:03 36.06285 -114.91582 5163 ft 240 kts 313°
2026-05-07 21:03 36.07112 -114.93304 4908 ft 229 kts 290°
2026-05-07 21:03 36.07411 -114.95149 4681 ft 207 kts 274°
2026-05-07 21:04 36.07409 -114.96846 4448 ft 189 kts 268°
2026-05-07 21:04 36.07378 -114.98413 4250 ft 176 kts 270°
2026-05-07 21:04 36.07372 -114.99910 4036 ft 175 kts 270°
2026-05-07 21:04 36.07372 -115.01401 3820 ft 169 kts 270°
2026-05-07 21:05 36.07371 -115.02837 3616 ft 166 kts 270°
2026-05-07 21:05 36.07370 -115.04258 3422 ft 163 kts 270°
2026-05-07 21:05 36.07369 -115.05645 3223 ft 160 kts 270°
2026-05-07 21:05 36.07369 -115.06992 3030 ft 158 kts 270°
2026-05-07 21:06 36.07368 -115.08343 2812 ft 157 kts 270°
2026-05-07 21:06 36.07366 -115.09686 2565 ft 155 kts 270°
2026-05-07 21:06 36.07364 -115.11021 2329 ft 157 kts 272°
2026-05-07 21:06 36.07367 -115.12419 2146 ft 164 kts 271°
2026-05-07 21:07 36.07368 -115.13768 2080 ft 135 kts 268°
2026-05-07 21:07 36.07366 -115.14608 2094 ft 60 kts 271°
2026-05-07 21:07 36.07439 -115.14980 2100 ft 31 kts 298°
2026-05-07 21:07 36.07517 -115.15119 2104 ft 12 kts 321°
2026-05-07 21:08 36.07546 -115.15142 2106 ft 1 kts 328°
2026-05-07 21:08 36.07555 -115.15149 2107 ft 9 kts 333°
2026-05-07 21:08 36.07644 -115.15199 2114 ft 19 kts 334°
2026-05-07 21:08 36.07755 -115.15263 2107 ft 13 kts 338°
2026-05-07 21:09 36.07871 -115.15268 2102 ft 22 kts 62°
2026-05-07 21:09 36.07879 -115.15125 2101 ft 8 kts 76°
2026-05-07 21:09 36.07954 -115.15112 2100 ft 18 kts 359°
2026-05-07 21:09 36.08097 -115.15107 2100 ft 22 kts 13°
2026-05-07 21:10 36.08200 -115.15001 2099 ft 13 kts 46°
2026-05-07 21:10 36.08276 -115.14967 2100 ft 12 kts 336°
2026-05-07 21:10 36.08285 -115.15024 2099 ft 2 kts 257°
2026-05-07 21:10 36.08285 -115.15026 2099 ft 0 kts 258°